User: anonymous   Login
Location: Krakow
(50.0830°N, 19.9170°E)
Time: 00:07:13
(UTC+02:00)
Language:

UNISAT 6 - Orbit

View from above orbital plane
View from above orbital plane
View from above satellite
View from above satellite

Ground track
Ground track

The orbit data is extracted from the following two-line orbital elements,

1 40012U 14033C   24151.42501830  .00003108  00000-0  41011-3 0  9996
2 40012  97.7023 314.5783 0052746   4.6533 355.5158 14.79785605535213
Epoch (UTC): 30 May 2024 10:12:01
Eccentricity: 0.0052746
inclination: 97.7023°
perigee height: 593 km
apogee height: 667 km
right ascension of ascending node: 314.5783°
argument of perigee: 4.6533°
revolutions per day: 14.79785605
mean anomaly at epoch: 355.5158°
orbit number at epoch: 53521

The dashed part of the orbit path shows where the satellite is in the earth's shadow,  

DLR